Regional Weather Roundup
Issued by NWS Sterling, VA

Home | Current Version | Previous Version | Graphics & Text | Print | Product List | Glossary On
Versions: 1 2 3 4 5 6 7 8 9 10 11 12 13 14 15 16 17 18 19 20 21 22 23 24 25 26 27 28 29 30 31 32 33 34 35 36 37 38 39 40 41 42 43 44 45 46 47 48 49 50
000
ASUS41 KLWX 270810
RWRLWX

REGIONAL WEATHER ROUNDUP
NATIONAL WEATHER SERVICE BALTIMORE MD/WASHINGTON DC
400 AM EDT WED AUG 27 2014

Note: "FAIR" indicates few or no clouds below 12,000 feet
with no significant weather and/or obstructions to visibility.
 TC=TEMPERATURE CELSIUS

 * =Non NWS site. Station does not report precipitation (e.g. rain,
    snow, etc.), thunder, or fog.

DCZ001-MDZ009-015-VAZ040>042-051-053>054-270900-
WASHINGTON METRO
  /KDAA//-FT BELVOIR

CITY           SKY/WX    TMP DP  RH WIND       PRES   REMARKS
WASHINGTON NAT PTCLDY    72  65  78 CALM      30.05F
DULLES         CLEAR     61  60  97 NW3       30.06F
QUANTICO       CLEAR     65  63  93 NW5       30.05F
COLLEGE PARK*  CLEAR     63  63 100 CALM      30.04F
LEESBURG*      CLEAR     63  63 100 CALM      30.07S
MANASSAS*        N/A     61  61 100 CALM      30.06S VSB 3/4
GAITHERSBURG*  CLEAR     61  57  88 CALM      30.09S

$$

MDZ006>007-011-014-270900-
BALTIMORE METRO

CITY           SKY/WX    TMP DP  RH WIND       PRES   REMARKS
BWI AIRPORT    CLEAR     65  62  90 CALM      30.04F
MD SCIENCE CTR   N/A     72  64  76 MISG      30.05F
MARTIN STATE   CLEAR     66  64  94 CALM      30.06F
ANNAPOLIS      CLEAR     68  64  87 CALM      30.05S
FORT MEADE*    CLEAR     59  57  94 CALM      30.07F

$$

MDZ012-015-019>023-270900-
MARYLAND EASTERN SHORE

CITY           SKY/WX    TMP DP  RH WIND       PRES   REMARKS
OCEAN CITY     CLOUDY    59  58  96 CALM      30.05F FOG
SALISBURY      FOG       60  57  89 CALM      30.06S VSB 1/2
BAY BRIDGE AP*   N/A     66  64  94 CALM      30.05F
CAMBRIDGE*     CLEAR     59  55  88 CALM      30.05R
EASTON*        CLEAR     62  62 100 CALM      30.09S

$$

MDZ017>025-270900-
SOUTHERN MARYLAND

CITY           SKY/WX    TMP DP  RH WIND       PRES   REMARKS
PATUXENT RIVER CLEAR     60  59  96 CALM      30.05R
ST INIGOES     CLEAR     59  56  89 CALM      30.05R
LEONARDTOWN*   CLEAR     59  55  88 CALM      30.07R

$$

MDZ003>005-270900-
NORTH CENTRAL MARYLAND

CITY           SKY/WX    TMP DP  RH WIND       PRES   REMARKS
FREDERICK*     FOG      N/A N/A N/A CALM      30.09S VSB 1/2
HAGERSTOWN APT CLEAR     64  59  83 CALM      30.08S
WESTMINSTER*   PTCLDY    64  61  88 CALM      30.07F

$$

MDZ501>502-270900-
WESTERN MARYLAND

CITY           SKY/WX    TMP DP  RH WIND       PRES   REMARKS
OAKLAND*       CLEAR     63  54  72 W5        30.18S
CUMBERLAND*    CLEAR     59  55  88 N3        30.14S

$$

VAZ025>031-270900-
SHENANDOAH VALLEY

CITY           SKY/WX    TMP DP  RH WIND       PRES   REMARKS
WINCHESTER*    CLEAR     63  59  88 CALM      30.08S
STAUNTON*      PTCLDY    53  51  93 CALM      30.13S

$$

WVZ021-048>050-054>055-270900-
EASTERN WEST VIRGINIA PANHANDLE

CITY           SKY/WX    TMP DP  RH WIND       PRES   REMARKS
MARTINSBURG    CLEAR     59  56  89 SE3       30.07F FOG
PETERSBURG*    NOT AVBL

$$

VAZ036>039-050-270900-
CENTRAL FOOTHILLS

CITY           SKY/WX    TMP DP  RH WIND       PRES   REMARKS
CHARLOTTESVILL CLEAR     59  58  96 W5        30.07F
ORANGE*          N/A     59  57  94 CALM      30.08S FOG

$$

VAZ055>057-270900-
NORTH AND CENTRAL PIEDMONT

CITY           SKY/WX    TMP DP  RH WIND       PRES   REMARKS
FREDERICKSBRG* CLEAR     63  63 100 CALM      30.04F
STAFFORD*        N/A     59  59 100 CALM      30.09F FOG

$$

NCZ024-NYZ072-PAZ021-071-VAZ022-071-270900-
OTHER REGIONAL OBSERVATIONS

CITY           SKY/WX    TMP DP  RH WIND       PRES   REMARKS
NEW YORK CITY  CLEAR     71  61  70 W5        30.07S
PHILADELPHIA   CLEAR     70  61  73 SW5       30.05F
PITTSBURGH     CLEAR     67  63  87 CALM      30.10S
ROANOKE        CLEAR     60  58  92 NE5       30.12F
RICHMOND       CLEAR     63  59  87 CALM      30.06S
RALEIGH        PTCLDY    62  59  90 CALM      30.06F

$$

ANZ530>537-270900-
MARINE OBSERVATIONS

STATION/POSITION TIME  TEMP    WIND        PRES
                       AIR SEA DIR/SP/G
                 (UTC) (F)     (DEG/KT/KT) (MB)
THOMAS PT LIGHT  0800   71 78  260/  6/  6 1018.5F
BALT KEY BRIDGE  0800   77     150/  4/  5 1017.3F
COVE POINT       0800   71     280/  4/  4 1017.5S
LEWISETTA        0800   67 77  270/  3/  3 1017.4R
SOLOMONS ISLAND  0800      79                N/A
PINEY POINT      0800          270/  3/  4   N/A

$$



USA.gov is the U.S. government's official web portal to all federal, state and local government web resources and services.